This page uses our WeatherBlox Daily Observations layout. Learn more.

Hourly Observations for January 12, 2018

Temp ( °F °C ) Dew Point ( °F °C ) Humidity (%) Winds ( mph kmh ) Pressure ( in mb ) Visibility ( mi km ) Precip ( " mm )
12:15 am 00:15 Cloudy 59 15 59 15 100 100 SE 8 13 30.06 1018 10 16.09344 0 0
12:35 am 00:35 Cloudy with Rain 59 15 59 15 100 100 SE 5 7 30.06 1018 10 16.09344 0 0
12:55 am 00:55 Cloudy with Light Drizzle 57 14 57 14 100 100 SSE 8 13 30.03 1017 7 11.265408 0 0
1:15 am 01:15 Cloudy 57 14 57 14 100 100 SSE 10 17 30.03 1017 10 16.09344 0 0
1:35 am 01:35 Cloudy 57 14 57 14 100 100 SSE 10 17 30 1016 10 16.09344 0 0
1:55 am 01:55 Cloudy 57 14 57 14 100 100 SSE 13 20 30 1016 10 16.09344 0 0
2:15 am 02:15 Cloudy with Mist and Fog 57 14 57 14 100 100 SE 12 19 29.97 1015 5 8.04672 0 0
2:35 am 02:35 Cloudy with Rain 57 14 57 14 100 100 SE 9 15 29.97 1015 4 6.437376 0.01 0.254
2:55 am 02:55 Cloudy with Rain 57 14 57 14 100 100 SE 12 19 29.94 1014 5 8.04672 0.01 0.254
3:15 am 03:15 Cloudy with Rain 59 15 59 15 100 100 SSE 14 22 29.94 1014 4 6.437376 0.05 1.27
3:35 am 03:35 Cloudy with Light Rain 59 15 59 15 100 100 SSE 16 26 29.91 1013 5 8.04672 0.1 2.54
3:55 am 03:55 Cloudy with Drizzle 59 15 59 15 100 100 SSE 14 22 29.91 1013 5 8.04672 0.1 2.54
4:15 am 04:15 Cloudy with Drizzle 59 15 59 15 100 100 S 12 19 29.91 1013 5 8.04672 0.01 0.254
4:35 am 04:35 Cloudy with Drizzle 59 15 59 15 100 100 S 15 24 29.91 1013 7 11.265408 0.02 0.508
4:55 am 04:55 Cloudy with Light Rain 59 15 59 15 100 100 S 13 20 29.88 1012 5 8.04672 0.02 0.508
5:15 am 05:15 Cloudy with Drizzle 59 15 59 15 100 100 S 16 26 29.88 1012 5 8.04672 0.01 0.254
5:35 am 05:35 Cloudy 59 15 59 15 100 100 S 14 22 29.88 1012 7 11.265408 0.01 0.254
5:55 am 05:55 Cloudy with Light Drizzle 59 15 59 15 100 100 SSE 10 17 29.88 1012 7 11.265408 0.01 0.254
6:15 am 06:15 Cloudy 59 15 59 15 100 100 S 12 19 29.88 1012 10 16.09344 0 0
6:35 am 06:35 Cloudy 59 15 59 15 100 100 S 13 20 29.88 1012 10 16.09344 0 0
6:55 am 06:55 Cloudy with Mist and Fog 59 15 59 15 100 100 S 16 26 29.85 1011 5 8.04672 0 0
7:15 am 07:15 Cloudy with Mist and Fog 59 15 59 15 100 100 S 16 26 29.85 1011 5 8.04672 0.01 0.254
7:35 am 07:35 Cloudy 59 15 59 15 100 100 SW 7 11 29.85 1011 7 11.265408 0.01 0.254
7:55 am 07:55 Cloudy 59 15 59 15 100 100 undefined N/A 29.85 1011 10 16.09344 0.01 0.254
8:15 am 08:15 Cloudy 59 15 59 15 100 100 S 12 19 29.85 1011 10 16.09344 0 0
8:35 am 08:35 Cloudy 59 15 59 15 100 100 S 13 20 29.85 1011 10 16.09344 0 0
8:55 am 08:55 Cloudy 59 15 59 15 100 100 S 15 24 29.83 1010 10 16.09344 0 0
9:15 am 09:15 Cloudy 59 15 59 15 100 100 S 14 22 29.83 1010 10 16.09344 0 0
9:35 am 09:35 Cloudy 59 15 59 15 100 100 S 14 22 29.83 1010 10 16.09344 0 0
9:55 am 09:55 Cloudy 61 16 61 16 100 100 S 12 19 29.83 1010 10 16.09344 0 0
10:15 am 10:15 Cloudy 61 16 61 16 100 100 S 12 19 29.83 1010 10 16.09344 0 0
10:35 am 10:35 Cloudy with Light Rain 61 16 61 16 100 100 S 15 24 29.83 1010 7 11.265408 0 0
10:55 am 10:55 Cloudy 61 16 61 16 100 100 S 15 24 29.83 1010 10 16.09344 0 0
11:15 am 11:15 Cloudy 63 17 61 16 94 94 S 14 22 29.8 1009 10 16.09344 0 0
11:35 am 11:35 Cloudy 63 17 63 17 100 100 S 15 24 29.8 1009 10 16.09344 0 0
11:55 am 11:55 Cloudy 63 17 63 17 100 100 S 15 24 29.77 1008 10 16.09344 0 0
12:15 pm 12:15 Cloudy 64 18 63 17 94 94 S 17 28 29.74 1007 10 16.09344 0 0
12:35 pm 12:35 Cloudy 66 19 63 17 88 88 SSW 16 26 29.74 1007 10 16.09344 0 0
12:55 pm 12:55 Cloudy 66 19 63 17 88 88 S 14 22 29.74 1007 10 16.09344 0 0
1:15 pm 13:15 Cloudy 66 19 63 17 88 88 S 10 17 29.71 1006 10 16.09344 0 0
1:35 pm 13:35 Cloudy 68 20 63 17 83 83 S 10 17 29.71 1006 10 16.09344 0 0
1:55 pm 13:55 Cloudy 68 20 63 17 83 83 S 13 20 29.71 1006 10 16.09344 0 0
2:15 pm 14:15 Mostly Cloudy 68 20 63 17 83 83 S 12 19 29.68 1005 10 16.09344 0 0
2:35 pm 14:35 Mostly Cloudy 68 20 63 17 83 83 S 13 20 29.68 1005 10 16.09344 0 0
2:55 pm 14:55 Cloudy 68 20 64 18 88 88 S 9 15 29.68 1005 10 16.09344 0 0
3:15 pm 15:15 Cloudy 68 20 64 18 88 88 S 9 15 29.68 1005 10 16.09344 0 0
3:35 pm 15:35 Cloudy 68 20 64 18 88 88 S 10 17 29.68 1005 10 16.09344 0 0
3:55 pm 15:55 Cloudy 68 20 64 18 88 88 SSE 15 24 29.65 1004 10 16.09344 0 0
4:15 pm 16:15 Cloudy 68 20 64 18 88 88 SSE 10 17 29.65 1004 10 16.09344 0 0
4:35 pm 16:35 Cloudy 66 19 64 18 94 94 SSE 13 20 29.65 1004 10 16.09344 0 0
4:55 pm 16:55 Cloudy 66 19 64 18 94 94 SSE 12 19 29.65 1004 10 16.09344 0 0
5:15 pm 17:15 Mostly Cloudy 64 18 63 17 94 94 SSE 14 22 29.62 1003 10 16.09344 0 0
5:35 pm 17:35 Mostly Cloudy 64 18 63 17 94 94 SSE 13 20 29.62 1003 10 16.09344 0 0
5:55 pm 17:55 Mostly Cloudy 64 18 63 17 94 94 SSE 16 26 29.62 1003 10 16.09344 0 0
6:15 pm 18:15 Cloudy 64 18 63 17 94 94 SSE 13 20 29.62 1003 10 16.09344 0 0
6:35 pm 18:35 Cloudy with Rain 64 18 63 17 94 94 SE 8 13 29.59 1002 10 16.09344 0 0
6:55 pm 18:55 Cloudy with Light Rain 63 17 63 17 100 100 SSE 13 20 29.59 1002 10 16.09344 0 0
7:15 pm 19:15 Cloudy with Light Drizzle 63 17 63 17 100 100 SSE 16 26 29.59 1002 10 16.09344 0 0
7:35 pm 19:35 Cloudy with Light Rain 63 17 63 17 100 100 S 15 24 29.56 1001 10 16.09344 0 0
7:55 pm 19:55 Cloudy with Light Rain 61 16 61 16 100 100 SSW 12 19 29.59 1002 10 16.09344 0 0
8:15 pm 20:15 Cloudy with Light Rain 61 16 61 16 100 100 SSW 9 15 29.56 1001 10 16.09344 0.01 0.254
8:35 pm 20:35 Cloudy 61 16 61 16 100 100 SSW 7 11 29.56 1001 10 16.09344 0.01 0.254
8:55 pm 20:55 Cloudy with Light Rain 59 15 59 15 100 100 S 6 9 29.56 1001 10 16.09344 0.01 0.254
9:15 pm 21:15 Cloudy 59 15 59 15 100 100 S 8 13 29.56 1001 10 16.09344 0 0
9:35 pm 21:35 Partly Cloudy 59 15 59 15 100 100 S 7 11 29.53 1000 10 16.09344 0 0
9:55 pm 21:55 Mostly Cloudy 59 15 59 15 100 100 S 3 6 29.53 1000 10 16.09344 0 0
10:15 pm 22:15 Cloudy 57 14 57 14 100 100 Calm 29.5 999 10 16.09344 0 0
10:35 pm 22:35 Cloudy 57 14 57 14 100 100 S 3 6 29.47 998 10 16.09344 0 0
10:55 pm 22:55 Cloudy with Rain 57 14 57 14 100 100 S 6 9 29.47 998 7 11.265408 0.01 0.254
11:15 pm 23:15 Cloudy with Heavy Rain 57 14 57 14 100 100 SSE 9 15 29.47 998 3 4.828032 0.11 2.794
11:35 pm 23:35 Cloudy with Rain 57 14 57 14 100 100 S 13 20 29.47 998 5 8.04672 0.23 5.842
11:55 pm 23:55 Cloudy with Heavy Rain 57 14 57 14 100 100 SSW 9 15 29.44 997 5 8.04672 0.3 7.62

Powered by AerisWeather